Kirksville, MO

6:42 PM CST on December 12, 2017 (GMT -0600)
Kirksville Regional

Weather History for KIRK - April, 2012

Change the Weather History Date:

Wednesday, April 18, 2012

  Actual Average Record
Temperature  
Mean Temperature 61 °F 53 °F  
Max Temperature 75 °F 64 °F 85 °F (1925)
Min Temperature 46 °F 42 °F 21 °F (1983)
Degree Days  
Heating Degree Days 4 13  
Month to date heating degree days 203 276  
Since 1 July heating degree days 4483 5563  
Cooling Degree Days 0 0  
Month to date cooling degree days 15 0  
Year to date cooling degree days 33 0  
Growing Degree Days 10 (Base 50)    
Moisture  
Dew Point 48 °F    
Average Humidity 66    
Maximum Humidity 93    
Minimum Humidity 38    
Precipitation  
Precipitation 0.00 in 0.16 in 1.65 in (1970)
Month to date precipitation 2.77 1.89  
Year to date precipitation 8.97 7.24  
Sea Level Pressure  
Sea Level Pressure 30.06 in    
Wind  
Wind Speed 9 mph (SSW)    
Max Wind Speed 17 mph    
Max Gust Speed 25 mph    
Visibility 10 miles    
Events      
T = Trace of Precipitation, MM = Missing Value Source: NWS Daily Summary

Daily Weather History Graph

Daily Weather History Graph

Search for Another Location

Airport or City:

Trip Planner

Search our weather history database for the weather conditions in past years. The results will help you decide how hot, cold, wet, or windy it might be!

Date:

Astronomy

Apr. 18, 2012 Rise Set
Actual Time 6:27 AM CDT 7:52 PM CDT
Civil Twilight 5:58 AM CDT 8:20 PM CDT
Nautical Twilight 5:24 AM CDT 8:54 PM CDT
Astronomical Twilight 4:48 AM CDT 9:30 PM CDT
Moon 4:52 AM CDT (4/18) 5:43 PM CDT (4/18)
Length of Visible Light 14h 22m
Length of Day
13h 25m
Waning Crescent, 6% of the Moon is Illuminated
Apr 18
Waning Crescent
Apr 21
New
Apr 29
First Quarter
May 5
Full
May 12
Last Quarter

Hourly Weather History & Observations

Time (CDT) Temp. Dew Point Humidity Pressure Visibility Wind Dir Wind Speed Gust Speed Precip Events Conditions
12:55 AM 53.1 °F 45.0 °F 74% 30.19 in 10.0 mi South 10.4 mph - N/A   Clear
1:55 AM 50.0 °F 44.1 °F 80% 30.17 in 10.0 mi South 5.8 mph - N/A   Clear
2:55 AM 52.0 °F 44.1 °F 74% 30.15 in 10.0 mi South 8.1 mph - N/A   Clear
3:55 AM 50.0 °F 44.1 °F 80% 30.14 in 10.0 mi SSW 6.9 mph - N/A   Clear
4:55 AM 48.0 °F 44.1 °F 86% 30.14 in 10.0 mi South 5.8 mph - N/A   Clear
5:55 AM 46.9 °F 44.1 °F 90% 30.15 in 10.0 mi SSW 4.6 mph - N/A   Clear
7:55 AM 52.0 °F 46.9 °F 83% 30.16 in 10.0 mi SSW 11.5 mph - N/A   Clear
8:55 AM 57.9 °F 48.0 °F 70% 30.17 in 10.0 mi SSW 13.8 mph - N/A   Partly Cloudy
9:55 AM 60.1 °F 48.9 °F 67% 30.16 in 10.0 mi SSW 10.4 mph - N/A   Partly Cloudy
10:55 AM 64.0 °F 50.0 °F 60% 30.14 in 10.0 mi SSW 10.4 mph - N/A   Clear
11:55 AM 64.0 °F 50.0 °F 60% 30.11 in 10.0 mi SW 10.4 mph - N/A   Mostly Cloudy
12:55 PM 69.1 °F 51.1 °F 53% 30.07 in 10.0 mi SSW 15.0 mph - N/A   Scattered Clouds
1:55 PM 71.1 °F 52.0 °F 51% 30.04 in 10.0 mi South 13.8 mph 20.7 mph N/A   Clear
2:55 PM 73.9 °F 51.1 °F 45% 30.01 in 10.0 mi SSW 9.2 mph 18.4 mph N/A   Clear
3:55 PM 73.9 °F 51.1 °F 45% 29.98 in 10.0 mi SSW 11.5 mph 18.4 mph N/A   Clear
4:55 PM 73.9 °F 46.9 °F 38% 29.96 in 10.0 mi SSW 15.0 mph 21.9 mph N/A   Clear
5:55 PM 73.0 °F 48.9 °F 42% 29.96 in 10.0 mi SSW 12.7 mph 17.3 mph N/A   Clear
6:55 PM 70.0 °F 48.0 °F 46% 29.95 in 10.0 mi SSW 6.9 mph - N/A   Clear
7:55 PM 64.0 °F 51.1 °F 63% 29.97 in 10.0 mi South 5.8 mph - N/A   Overcast
8:55 PM 59.0 °F 50.0 °F 72% 29.96 in 10.0 mi South 8.1 mph - N/A   Scattered Clouds
9:55 PM 57.9 °F 48.0 °F 70% 29.97 in 10.0 mi South 4.6 mph - N/A   Clear
10:55 PM 55.9 °F 48.9 °F 77% 29.96 in 10.0 mi South 9.2 mph - N/A   Scattered Clouds
11:55 PM 59.0 °F 48.0 °F 67% 29.95 in 10.0 mi South 5.8 mph - N/A   Clear